| time (UTC) | temp F | wind direction | speed knots | gust knots | rain 1hr in | rain 24hr in | rain mn in | humidity % | barometer mb |
| 20260902194525 | 87 | 291 | 0.0 | 4.3 | 0.00 | 0.54 | 0.00 | 59 | 1009.0 |
| 20260902193020 | 88 | 49 | 0.0 | 7.0 | 0.00 | 0.54 | 0.00 | 55 | 1009.2 |
| 20260902191518 | 89 | 126 | 2.6 | 7.8 | 0.00 | 0.54 | 0.00 | 55 | 1009.2 |
| 20260902190014 | 87 | 84 | 0.0 | 6.1 | 0.00 | 0.54 | 0.00 | 57 | 1009.2 |
| 20260902184512 | 87 | 121 | 4.3 | 7.8 | 0.00 | 0.54 | 0.00 | 57 | 1009.3 |
| 20260902183008 | 86 | 182 | 0.0 | 3.5 | 0.00 | 0.54 | 0.00 | 56 | 1009.7 |
| 20260902181504 | 88 | 53 | 0.0 | 1.7 | 0.00 | 0.54 | 0.00 | 56 | 1009.9 |
| 20260902180116 | 87 | 119 | 1.7 | 7.0 | 0.00 | 0.54 | 0.00 | 56 | 1010.0 |
| 20260902174559 | 85 | 125 | 0.0 | 1.7 | 0.00 | 0.54 | 0.00 | 59 | 1010.2 |
| 20260902173051 | 86 | 110 | 0.0 | 2.6 | 0.00 | 0.54 | 0.00 | 59 | 1010.4 |
| 20260902171547 | 84 | 71 | 0.0 | 4.3 | 0.00 | 0.54 | 0.00 | 64 | 1010.5 |
| 20260902170042 | 82 | 49 | 0.0 | 3.5 | 0.00 | 0.54 | 0.00 | 65 | 1010.3 |
| 20260902164535 | 80 | 86 | 0.0 | 3.5 | 0.00 | 0.54 | 0.00 | 68 | 1010.5 |
| 20260902163032 | 80 | 138 | 0.9 | 6.1 | 0.00 | 0.54 | 0.00 | 68 | 1010.6 |
| 20260902161527 | 79 | 132 | 1.7 | 7.8 | 0.00 | 0.54 | 0.00 | 70 | 1010.4 |
| 20260902160021 | 80 | 122 | 0.9 | 5.2 | 0.00 | 0.54 | 0.54 | 69 | 1010.4 |
| 20260902154552 | 78 | 116 | 0.0 | 7.8 | 0.00 | 0.54 | 0.54 | 71 | 1010.5 |
| 20260902153051 | 77 | 185 | 0.0 | 5.2 | 0.00 | 0.54 | 0.54 | 73 | 1010.5 |
| 20260902151550 | 76 | 150 | 0.9 | 6.1 | 0.00 | 0.54 | 0.54 | 75 | 1010.4 |
| 20260902150047 | 73 | 212 | 0.0 | 4.3 | 0.00 | 0.54 | 0.54 | 80 | 1010.2 |
| 20260902144559 | 72 | 173 | 0.9 | 6.1 | 0.00 | 0.54 | 0.54 | 80 | 1010.4 |
| 20260902143046 | 72 | 178 | 0.9 | 4.3 | 0.00 | 0.54 | 0.54 | 81 | 1010.8 |
| 20260902141518 | 71 | 180 | 0.0 | 5.2 | 0.00 | 0.54 | 0.54 | 80 | 1010.6 |
| 20260902140014 | 71 | 165 | 0.0 | 7.0 | 0.00 | 0.54 | 0.54 | 82 | 1010.5 |
| 20260902134516 | 69 | 157 | 0.0 | 7.0 | 0.00 | 0.54 | 0.54 | 85 | 1010.6 |
| 20260902133012 | 68 | 170 | 2.6 | 7.0 | 0.00 | 0.54 | 0.54 | 88 | 1010.7 |
| 20260902131511 | 66 | 173 | 0.0 | 4.3 | 0.00 | 0.54 | 0.54 | 91 | 1011.0 |
| 20260902130011 | 65 | 196 | 0.0 | 1.7 | 0.00 | 0.54 | 0.54 | 92 | 1011.0 |
| 20260902124508 | 64 | 234 | 0.0 | 0.0 | 0.00 | 0.54 | 0.54 | 91 | 1010.4 |
| 20260902123007 | 64 | 343 | 0.0 | 0.0 | 0.00 | 0.54 | 0.54 | 91 | 1010.5 |
| 20260902121505 | 64 | 205 | 0.0 | 0.0 | 0.00 | 0.54 | 0.54 | 91 | 1010.1 |
| 20260902120005 | 64 | 5 | 0.0 | 0.0 | 0.00 | 0.54 | 0.54 | 90 | 1010.8 |
| 20260902114502 | 64 | 261 | 0.0 | 0.0 | 0.00 | 0.54 | 0.54 | 89 | 1011.2 |
| 20260902113001 | 64 | 184 | 0.0 | 0.0 | 0.00 | 0.54 | 0.54 | 88 | 1011.5 |
| 20260902111600 | 65 | 240 | 0.0 | 0.9 | 0.00 | 0.54 | 0.54 | 87 | 1011.9 |
| 20260902110106 | 65 | 188 | 0.9 | 5.2 | 0.00 | 0.54 | 0.54 | 89 | 1011.9 |
| 20260902104538 | 65 | 232 | 0.9 | 13.0 | 0.00 | 0.54 | 0.54 | 89 | 1012.2 |
| 20260902103026 | 65 | 225 | 5.2 | 9.6 | 0.00 | 0.54 | 0.54 | 90 | 1012.4 |
| 20260902101529 | 67 | 173 | 0.9 | 3.5 | 0.00 | 0.54 | 0.54 | 89 | 1010.6 |
| 20260902100021 | 67 | 167 | 0.9 | 7.0 | 0.00 | 0.54 | 0.54 | 89 | 1010.3 |
| 20260902094520 | 67 | 157 | 0.0 | 3.5 | 0.00 | 0.54 | 0.54 | 88 | 1010.0 |
| 20260902093032 | 67 | 115 | 0.0 | 7.0 | 0.00 | 0.54 | 0.54 | 88 | 1010.0 |
| 20260902091517 | 67 | 82 | 1.7 | 6.1 | 0.01 | 0.54 | 0.54 | 89 | 1010.2 |
| 20260902090017 | 67 | 114 | 0.0 | 3.5 | 0.02 | 0.54 | 0.54 | 90 | 1011.0 |
| 20260902084515 | 67 | 80 | 1.7 | 4.3 | 0.04 | 0.54 | 0.54 | 90 | 1010.5 |
| 20260902083015 | 67 | 293 | 0.0 | 2.6 | 0.05 | 0.54 | 0.54 | 90 | 1010.2 |
| 20260902081512 | 67 | 219 | 0.0 | 9.6 | 0.08 | 0.53 | 0.53 | 87 | 1010.2 |
| 20260902080010 | 67 | 59 | 0.0 | 4.3 | 0.22 | 0.52 | 0.52 | 87 | 1010.4 |
| 20260902074509 | 67 | 221 | 0.0 | 6.1 | 0.42 | 0.50 | 0.50 | 90 | 1010.8 |
| 20260902073009 | 68 | 350 | 0.9 | 11.3 | 0.44 | 0.49 | 0.49 | 90 | 1012.4 |
| 20260902071507 | 67 | 263 | 4.3 | 15.6 | 0.43 | 0.44 | 0.44 | 90 | 1015.5 |
| 20260902070004 | 70 | 264 | 7.0 | 17.4 | 0.28 | 0.28 | 0.28 | 91 | 1014.6 |
| 20260902064610 | 69 | 274 | 0.0 | 0.0 | 0.08 | 0.08 | 0.08 | 93 | 1011.1 |
| 20260902063103 | 69 | 355 | 0.0 | 0.0 | 0.05 | 0.05 | 0.05 | 92 | 1010.0 |
| 20260902061559 | 69 | 220 | 0.0 | 0.0 | 0.01 | 0.01 | 0.01 | 92 | 1010.4 |
| 20260902060055 | 69 | 216 | 0.0 | 0.0 | 0.00 | 0.00 | 0.00 | 91 | 1010.3 |
| 20260902054553 | 69 | 58 | 0.0 | 0.0 | 0.00 | 0.00 | 0.00 | 90 | 1010.1 |
| 20260902053058 | 68 | 184 | 0.0 | 0.0 | 0.00 | 0.00 | 0.00 | 90 | 1010.2 |
| 20260902051553 | 69 | 184 | 0.0 | 0.0 | 0.00 | 0.00 | 0.00 | 90 | 1010.4 |
| 20260902050052 | 68 | 184 | 0.0 | 0.0 | 0.00 | 0.00 | 0.00 | 90 | 1010.4 |
| 20260902044549 | 68 | 184 | 0.0 | 0.0 | 0.00 | 0.00 | 0.00 | 90 | 1010.3 |
| 20260902043050 | 68 | 184 | 0.0 | 0.0 | 0.00 | 0.00 | 0.00 | 90 | 1010.0 |
| 20260902041552 | 68 | 184 | 0.0 | 0.0 | 0.00 | 0.00 | 0.00 | 89 | 1010.1 |
| 20260902040044 | 68 | 184 | 0.0 | 0.0 | 0.00 | 0.00 | 0.00 | 89 | 1010.3 |
| 20260902034555 | 68 | 184 | 0.0 | 0.0 | 0.00 | 0.00 | 0.00 | 89 | 1010.6 |
| 20260902033057 | 69 | 184 | 0.0 | 0.0 | 0.00 | 0.00 | 0.00 | 89 | 1010.8 |
| 20260902031541 | 69 | 221 | 0.0 | 0.0 | 0.00 | 0.00 | 0.00 | 89 | 1010.7 |
| 20260902030027 | 69 | 221 | 0.0 | 0.0 | 0.00 | 0.00 | 0.00 | 88 | 1010.6 |
| 20260902024527 | 70 | 221 | 0.0 | 0.0 | 0.00 | 0.00 | 0.00 | 88 | 1010.6 |
| 20260902023025 | 70 | 221 | 0.0 | 0.0 | 0.00 | 0.00 | 0.00 | 88 | 1010.5 |
| 20260902020025 | 71 | 248 | 0.0 | 0.0 | 0.00 | 0.00 | 0.00 | 86 | 1010.4 |
| 20260902014518 | 72 | 209 | 0.0 | 0.0 | 0.00 | 0.00 | 0.00 | 86 | 1010.3 |
| 20260902013016 | 72 | 209 | 0.0 | 0.0 | 0.00 | 0.00 | 0.00 | 84 | 1010.1 |
| 20260902010014 | 74 | 209 | 0.0 | 0.0 | 0.00 | 0.00 | 0.00 | 85 | 1010.3 |
| 20260902004515 | 75 | 209 | 0.0 | 0.0 | 0.00 | 0.00 | 0.00 | 82 | 1010.1 |
| 20260902003002 | 76 | 220 | 0.0 | 0.0 | 0.00 | 0.00 | 0.00 | 80 | 1010.2 |
| 20260902001656 | 77 | 256 | 0.0 | 0.0 | 0.00 | 0.00 | 0.00 | 77 | 1010.1 |
| 20260902000056 | 79 | 256 | 0.0 | 0.0 | 0.00 | 0.00 | 0.00 | 72 | 1010.1 |
| 20260901234557 | 80 | 256 | 0.0 | 0.0 | 0.00 | 0.00 | 0.00 | 68 | 1010.0 |
| 20260901233051 | 80 | 261 | 0.0 | 0.0 | 0.00 | 0.00 | 0.00 | 69 | 1010.1 |
| 20260901231545 | 82 | 310 | 0.0 | 0.0 | 0.00 | 0.00 | 0.00 | 65 | 1009.9 |
| 20260901230042 | 82 | 292 | 0.0 | 0.0 | 0.00 | 0.00 | 0.00 | 63 | 1009.8 |
| 20260901224543 | 82 | 208 | 0.0 | 0.0 | 0.00 | 0.00 | 0.00 | 62 | 1009.8 |
| 20260901223034 | 83 | 283 | 0.0 | 0.9 | 0.00 | 0.00 | 0.00 | 59 | 1010.1 |
| 20260901221534 | 83 | 227 | 0.0 | 0.0 | 0.00 | 0.00 | 0.00 | 60 | 1010.1 |
| 20260901220031 | 83 | 208 | 0.0 | 0.0 | 0.00 | 0.00 | 0.00 | 56 | 1009.9 |
| 20260901214533 | 84 | 202 | 0.0 | 0.0 | 0.00 | 0.00 | 0.00 | 53 | 1010.0 |
| 20260901213032 | 85 | 286 | 0.0 | 0.0 | 0.00 | 0.00 | 0.00 | 51 | 1010.2 |
| 20260901211533 | 85 | 323 | 0.0 | 0.9 | 0.00 | 0.00 | 0.00 | 50 | 1009.8 |
| 20260901210026 | 86 | 235 | 0.0 | 1.7 | 0.00 | 0.00 | 0.00 | 47 | 1010.1 |
| 20260901204521 | 86 | 297 | 0.0 | 0.9 | 0.00 | 0.00 | 0.00 | 48 | 1010.0 |
| 20260901203021 | 84 | 269 | 0.0 | 0.0 | 0.00 | 0.00 | 0.00 | 51 | 1010.1 |
| 20260901201519 | 85 | 267 | 0.0 | 0.9 | 0.00 | 0.00 | 0.00 | 48 | 1010.5 |
| 20260901200022 | 86 | 243 | 0.0 | 4.3 | 0.00 | 0.00 | 0.00 | 46 | 1010.6 |